KM6RDV Weather Reports


time (UTC)temp
F
wind
direction
speed
knots
gust
knots
rain 1hr
in
rain 24hr
in
rain mn
in
humidity
%
barometer
mb
20260506062018 57 0.0 0.0 0.00 0.06 0.06 80 1021.4
20260506061039 57 0.0 0.0 0.00 0.06 0.06 79 1021.2
20260506051018 58 88 0.0 1.7 0.00 0.06 0.06 76 1020.8
20260506045019 58 205 0.9 2.6 0.00 0.06 0.06 76 1020.7
20260506044019 58 255 0.9 3.5 0.00 0.06 0.06 76 1020.6
20260506043017 58 248 0.9 3.5 0.00 0.06 0.06 75 1020.5
20260506042027 58 244 0.9 3.5 0.00 0.06 0.06 75 1020.5
20260506041018 58 173 0.0 1.7 0.00 0.06 0.06 75 1020.2
20260506040021 58 213 0.9 3.5 0.00 0.06 0.06 75 1020.1
20260506035016 59 206 0.9 2.6 0.00 0.06 0.06 74 1020.0
20260506034019 59 191 0.9 2.6 0.00 0.06 0.06 74 1019.9
20260506033020 59 210 0.9 2.6 0.00 0.06 0.06 73 1019.8
20260506032017 0 191 0.9 3.5 0.00 0.06 0.06 1019.6
20260506031018 60 203 0.9 2.6 0.00 0.06 0.06 73 1019.5
20260506030017 60 194 0.9 4.3 0.00 0.06 0.06 73 1019.4
20260506025016 60 219 1.7 3.5 0.00 0.06 0.06 72 1019.3
20260506024017 60 214 1.7 4.3 0.00 0.06 0.06 71 1019.2
20260506023020 61 208 1.7 4.3 0.00 0.06 0.06 71 1019.0
20260506022016 61 196 2.6 5.2 0.00 0.06 0.06 70 1019.0
20260506021025 62 191 2.6 6.1 0.00 0.06 0.06 69 1019.1
20260506020024 62 226 2.6 6.1 0.00 0.06 0.06 67 1018.9
20260506015017 63 241 3.5 7.8 0.00 0.06 0.06 66 1018.9
20260506014018 63 248 2.6 6.1 0.00 0.06 0.06 64 1018.9
20260506013019 63 231 1.7 8.7 0.00 0.06 0.06 64 1018.9
20260506012040 63 244 2.6 5.2 0.00 0.06 0.06 65 1018.8
20260506011017 63 249 2.6 5.2 0.00 0.06 0.06 63 1018.7
20260506010019 63 246 1.7 4.3 0.00 0.06 0.06 63 1018.7
20260506005018 63 216 2.6 7.0 0.00 0.06 0.06 65 1018.8
20260506004037 63 203 1.7 7.0 0.00 0.06 0.06 65 1018.5
20260506003018 63 191 3.5 6.1 0.00 0.06 0.06 65 1018.5
20260506002039 63 180 3.5 7.8 0.00 0.06 0.06 64 1018.5
20260506001016 63 198 3.5 7.8 0.00 0.06 0.06 66 1018.5
20260506000029 63 186 4.3 7.8 0.00 0.06 0.06 66 1018.4
20260505235040 63 216 3.5 11.3 0.00 0.06 0.06 67 1018.4
20260505234037 62 195 3.5 7.8 0.00 0.06 0.06 67 1018.4
20260505233018 63 186 4.3 11.3 0.00 0.06 0.06 67 1018.6
20260505232017 63 207 1.7 5.2 0.00 0.06 0.06 66 1018.6
20260505231036 63 201 2.6 11.3 0.00 0.06 0.06 66 1018.5
20260505230018 63 235 3.5 9.6 0.00 0.06 0.06 62 1018.6
20260505225015 64 249 1.7 5.2 0.00 0.06 0.06 62 1018.5
20260505224036 64 304 3.5 6.1 0.00 0.06 0.06 62 1018.6
20260505223021 64 307 3.5 7.8 0.00 0.06 0.06 61 1018.6
20260505222019 64 289 3.5 8.7 0.00 0.06 0.06 61 1018.7
20260505221019 64 283 2.6 6.1 0.00 0.06 0.06 61 1018.7
20260505220022 64 300 3.5 7.8 0.00 0.06 0.06 60 1018.6
20260505215019 65 316 4.3 10.4 0.00 0.06 0.06 59 1018.7
20260505214020 65 301 3.5 8.7 0.00 0.06 0.06 58 1018.8
20260505213017 65 251 3.5 7.8 0.00 0.06 0.06 58 1018.9
20260505212016 64 228 2.6 6.1 0.00 0.06 0.06 59 1018.9
20260505211018 64 283 4.3 11.3 0.00 0.06 0.06 59 1019.2
20260505210016 64 281 3.5 9.6 0.00 0.06 0.06 59 1019.0
20260505205019 64 290 3.5 9.6 0.00 0.06 0.06 59 1018.9
20260505204025 64 261 3.5 8.7 0.00 0.06 0.06 60 1018.8
20260505203022 64 299 3.5 8.7 0.00 0.06 0.06 60 1019.0
20260505202039 64 271 3.5 8.7 0.00 0.06 0.06 60 1019.0
20260505201016 64 304 2.6 7.0 0.00 0.06 0.06 61 1019.2
20260505200037 63 284 4.3 9.6 0.00 0.06 0.06 61 1019.2
20260505195022 64 296 3.5 10.4 0.00 0.06 0.06 62 1019.2
20260505194019 63 294 3.5 7.8 0.00 0.06 0.06 62 1019.2
20260505193016 63 253 2.6 7.0 0.00 0.06 0.06 62 1019.2
20260505192018 62 250 3.5 7.8 0.00 0.06 0.06 65 1019.1
20260505191017 62 277 2.6 8.7 0.00 0.06 0.06 66 1019.2
20260505190020 61 303 2.6 8.7 0.00 0.06 0.06 69 1019.0
20260505185017 61 266 2.6 7.8 0.00 0.06 0.06 72 1019.0
20260505184018 60 256 3.5 7.8 0.00 0.06 0.06 71 1019.1
20260505183020 60 261 2.6 6.1 0.00 0.06 0.06 72 1019.2
20260505182022 60 254 2.6 7.0 0.00 0.06 0.06 75 1019.1
20260505181018 59 256 3.5 6.1 0.00 0.06 0.06 74 1019.1
20260505180020 59 246 2.6 7.8 0.00 0.06 0.06 76 1019.1
20260505175016 58 293 3.5 9.6 0.00 0.06 0.06 78 1019.0
20260505174037 58 251 1.7 6.1 0.00 0.06 0.06 79 1018.9
20260505173020 0 315 1.7 5.2 0.00 0.06 0.06 1019.0
20260505172019 58 308 3.5 7.8 0.00 0.06 0.06 80 1018.9
20260505171038 57 303 2.6 6.1 0.00 0.06 0.06 81 1018.7
20260505170020 57 302 1.7 3.5 0.00 0.06 0.06 83 1018.7
20260505165017 57 248 0.9 3.5 0.00 0.06 0.06 84 1018.7
20260505164018 56 239 1.7 3.5 0.00 0.06 0.06 85 1018.7
20260505163019 56 264 0.9 2.6 0.00 0.06 0.06 85 1018.6
20260505162020 56 273 0.9 2.6 0.00 0.06 0.06 85 1018.7
20260505161017 56 189 0.9 3.5 0.00 0.06 0.06 85 1018.4
20260505153019 55 168 0.9 2.6 0.00 0.06 0.06 86 1018.3
20260505152016 55 164 0.9 2.6 0.00 0.06 0.06 86 1018.2
20260505151016 55 178 0.9 2.6 0.00 0.06 0.06 86 1018.2
20260505125024 54 129 0.9 1.7 0.00 0.06 0.06 89 1017.7
20260505124019 53 307 0.0 1.7 0.00 0.06 0.06 89 1017.8
20260505123057 54 42 0.0 1.7 0.00 0.06 0.06 89 1017.6
20260505122019 53 306 0.9 1.7 0.00 0.06 0.06 88 1017.5
20260505121020 53 198 0.0 1.7 0.00 0.06 0.06 88 1017.4
20260505120017 53 187 0.9 2.6 0.00 0.06 0.06 87 1017.4
20260505115042 54 189 0.9 2.6 0.00 0.06 0.06 87 1017.6
20260505114038 54 237 0.9 3.5 0.00 0.06 0.06 86 1017.7
20260505113037 54 321 0.9 3.5 0.00 0.06 0.06 85 1017.9
20260505112017 54 276 0.9 2.6 0.00 0.06 0.06 86 1017.8
20260505111019 54 278 0.9 3.5 0.00 0.06 0.06 87 1017.7
20260505102021 54 129 0.0 1.7 0.00 0.06 0.06 90 1017.7
20260505101018 54 0.0 0.0 0.00 0.06 0.06 91 1017.6
20260505100021 53 0.0 0.0 0.01 0.06 0.06 91 1017.7
20260505095018 53 196 0.0 0.9 0.02 0.05 0.05 91 1017.8
20260505094037 53 263 0.0 1.7 0.03 0.05 0.05 90 1017.8
20260505093019 53 269 0.0 1.7 0.03 0.05 0.05 90 1018.0
20260505092038 53 173 0.0 0.9 0.03 0.05 0.05 90 1018.1
20260505091019 54 280 0.0 1.7 0.03 0.05 0.05 89 1018.4
20260505090020 54 278 0.0 2.6 0.03 0.05 0.05 88 1018.5
20260505085021 54 216 0.0 1.7 0.02 0.03 0.03 86 1018.3
20260505084024 54 315 0.0 1.7 0.01 0.02 0.02 86 1018.3
20260505083041 54 195 0.0 1.7 0.01 0.02 0.02 86 1018.4
20260505082016 54 180 0.0 1.7 0.02 0.02 0.02 85 1018.4
20260505081017 54 191 0.0 1.7 0.02 0.02 0.02 85 1018.7
20260505080020 54 214 0.9 1.7 0.02 0.02 0.02 84 1018.5
20260505075017 54 239 1.7 3.5 0.02 0.02 0.02 81 1018.6
20260505074023 55 266 0.9 3.5 0.01 0.01 0.01 80 1018.7
20260505073024 55 290 1.7 4.3 0.01 0.01 0.01 79 1018.7
20260505072021 55 299 1.7 4.3 0.00 0.00 0.00 78 1018.7
20260505071024 55 290 1.7 3.5 0.00 0.00 0.00 77 1018.7
20260505070019 55 302 1.7 3.5 0.00 0.00 0.00 78 1018.6
20260505065020 55 301 1.7 3.5 0.00 0.00 0.00 77 1018.5
20260505064023 55 291 1.7 4.3 0.00 0.00 0.00 77 1018.5
20260505063019 55 288 2.6 6.1 0.00 0.00 0.00 76 1018.4